Lid_Strength_Index
6 7 6 6 4 3 3 3 3 3 4 4 4 4 4 3 4 4 4 5 3 2 2 2 2 2 -1 0 0 0 -1 -1
6 6 6 6 6 4 4 3 4 4 4 4 5 5 4 4 4 4 4 5 6 4 3 3 3 3 1 -0 0 0 -1 -1
5 6 6 6 6 5 5 4 4 5 5 5 6 6 6 5 4 4 4 4 6 6 5 4 4 4 2 -0 0 -1 -1 -1
6 6 6 6 6 5 5 5 5 5 6 6 7 6 6 5 5 5 5 5 5 6 6 6 6 6 4 2 -1 -1 -1 -1
6 6 6 6 6 6 6 5 6 6 5 6 6 6 6 6 6 6 6 6 7 6 7 8 8 7 6 4 1 -1 -1 -1
6 6 6 6 6 6 6 6 6 6 6 6 7 7 7 6 6 5 6 6 7 7 6 9 8 8 7 5 3 0 -1 -1
6 6 6 6 6 6 6 6 6 7 7 7 7 7 7 7 6 6 6 6 7 8 6 7 9 8 7 7 4 4 -0 -1
6 6 5 5 6 6 6 6 6 7 7 7 7 7 7 7 7 6 6 6 7 7 7 7 8 9 9 7 5 4 3 -1
6 6 5 5 6 6 6 6 7 8 8 7 7 7 7 7 7 7 7 6 7 7 8 8 8 8 9 8 6 4 3 -0
6 6 6 5 6 6 6 7 7 8 8 7 7 6 6 6 7 7 6 6 7 7 8 9 8 9 9 9 9 7 5 3
6 6 6 6 6 6 6 7 7 7 7 7 7 6 6 6 6 5 5 6 7 7 8 8 8 9 9 9 9 8 6 3
6 6 6 6 6 6 7 8 7 7 7 7 6 6 5 4 4 4 4 6 6 7 7 7 8 8 9 9 8 8 6 3
6 6 7 7 7 8 9 9 8 7 6 6 6 5 4 3 3 3 4 6 6 6 7 8 8 7 8 9 8 7 6 3
7 7 7 7 7 8 8 8 8 7 6 6 5 4 3 2 2 3 3 5 6 6 7 8 8 7 10 9 8 5 3 2
7 7 8 7 7 8 8 7 7 7 7 7 6 4 3 3 3 3 3 3 5 6 7 7 9 7 8 10 12 13 12 3
7 8 8 7 7 8 8 9 9 8 8 7 5 4 3 3 3 3 3 3 4 5 6 8 8 8 7 8 9 10 12 11
8 8 8 7 8 8 8 8 8 8 8 7 5 4 3 3 4 4 4 4 4 5 7 8 8 8 8 9 9 9 10 12
8 8 8 8 8 8 8 9 9 9 8 7 6 5 4 4 5 5 5 5 5 6 8 8 8 8 8 8 9 10 11 11
8 8 9 8 8 8 8 9 9 9 8 7 6 6 5 5 6 6 5 5 6 7 8 8 8 8 8 8 8 9 9 10
9 9 9 9 9 8 8 9 9 8 8 7 6 5 5 5 6 6 6 6 6 8 8 8 8 8 8 8 8 9 9 10